Time,TemperatureF,DewpointF,PressureIn,WindDirection,WindDirectionDegrees,WindSpeedMPH,WindSpeedGustMPH,Humidity,HourlyPrecipIn,Conditions,Clouds,dailyrainin,SoftwareType,DateUTC
2013-07-13 00:00:00,82.6,67.3,29.88,South,186,0.0,0.0,60,0.00,,SKC,0.00,VWS V14.01,2013-07-13 05:00:00,
2013-07-13 00:02:00,82.3,67.5,29.88,South,186,0.0,0.0,61,0.00,,SKC,0.00,VWS V14.01,2013-07-13 05:02:00,
2013-07-13 00:06:00,82.1,67.3,29.89,South,186,0.0,0.0,61,0.00,,SKC,0.00,VWS V14.01,2013-07-13 05:06:00,
2013-07-13 00:10:00,82.2,67.4,29.88,South,186,0.0,0.0,61,0.00,,SKC,0.00,VWS V14.01,2013-07-13 05:10:00,
2013-07-13 00:12:00,81.9,67.1,29.89,South,186,0.0,0.0,61,0.00,,SKC,0.00,VWS V14.01,2013-07-13 05:12:00,
2013-07-13 00:17:00,81.7,67.4,29.88,South,186,0.0,0.0,62,0.00,,SKC,0.00,VWS V14.01,2013-07-13 05:17:00,
2013-07-13 00:20:00,81.8,67.5,29.88,South,186,0.0,0.0,62,0.00,,SKC,0.00,VWS V14.01,2013-07-13 05:20:00,
2013-07-13 00:22:00,81.5,67.2,29.88,South,186,0.0,0.0,62,0.00,,SKC,0.00,VWS V14.01,2013-07-13 05:22:00,
2013-07-13 00:27:00,81.3,67.5,29.89,South,186,0.0,0.0,63,0.00,,SKC,0.00,VWS V14.01,2013-07-13 05:27:00,
2013-07-13 00:30:00,81.4,67.6,29.89,South,186,0.0,0.0,63,0.00,,SKC,0.00,VWS V14.01,2013-07-13 05:30:00,
2013-07-13 00:32:00,81.2,67.9,29.89,South,186,0.0,0.0,64,0.00,,SKC,0.00,VWS V14.01,2013-07-13 05:32:00,
2013-07-13 00:37:00,81.1,68.2,29.89,South,186,0.0,0.0,65,0.00,,SKC,0.00,VWS V14.01,2013-07-13 05:37:00,
2013-07-13 00:40:00,81.1,68.2,29.89,South,186,0.0,1.0,65,0.00,,SKC,0.00,VWS V14.01,2013-07-13 05:40:00,
2013-07-13 00:42:00,81.0,68.1,29.89,South,186,0.0,0.0,65,0.00,,SKC,0.00,VWS V14.01,2013-07-13 05:42:00,
2013-07-13 00:47:00,80.8,68.4,29.89,South,186,0.0,0.0,66,0.00,,SKC,0.00,VWS V14.01,2013-07-13 05:47:00,
2013-07-13 00:50:00,80.8,68.4,29.89,South,186,0.0,0.0,66,0.00,,SKC,0.00,VWS V14.01,2013-07-13 05:50:00,
2013-07-13 00:52:00,80.6,68.2,29.89,South,186,0.0,0.0,66,0.00,,SKC,0.00,VWS V14.01,2013-07-13 05:52:00,
2013-07-13 00:57:00,80.5,68.5,29.89,South,186,0.0,0.0,67,0.00,,SKC,0.00,VWS V14.01,2013-07-13 05:57:00,
2013-07-13 01:00:00,80.5,68.5,29.89,South,186,0.0,0.0,67,0.00,,SKC,0.00,VWS V14.01,2013-07-13 06:00:00,
2013-07-13 01:02:00,80.3,68.8,29.89,South,186,0.0,0.0,68,0.00,,SKC,0.00,VWS V14.01,2013-07-13 06:02:00,
2013-07-13 01:06:00,80.1,69.0,29.89,South,186,0.0,0.0,69,0.00,,SKC,0.00,VWS V14.01,2013-07-13 06:06:00,
2013-07-13 01:10:00,80.1,68.6,29.89,South,186,0.0,0.0,68,0.00,,SKC,0.00,VWS V14.01,2013-07-13 06:10:00,
2013-07-13 01:11:00,80.0,68.9,29.89,South,186,0.0,0.0,69,0.00,,SKC,0.00,VWS V14.01,2013-07-13 06:11:00,
2013-07-13 01:16:00,79.9,68.8,29.89,South,186,0.0,0.0,69,0.00,,SKC,0.00,VWS V14.01,2013-07-13 06:16:00,
2013-07-13 01:20:00,79.9,68.8,29.89,South,186,0.0,0.0,69,0.00,,SKC,0.00,VWS V14.01,2013-07-13 06:20:00,
2013-07-13 01:22:00,79.8,68.7,29.89,South,186,0.0,0.0,69,0.00,,SKC,0.00,VWS V14.01,2013-07-13 06:22:00,
2013-07-13 01:27:00,79.7,69.1,29.90,South,186,0.0,0.0,70,0.00,,SKC,0.00,VWS V14.01,2013-07-13 06:27:00,
2013-07-13 01:30:00,79.7,69.1,29.90,South,186,0.0,0.0,70,0.00,,SKC,0.00,VWS V14.01,2013-07-13 06:30:00,
2013-07-13 01:32:00,79.5,68.9,29.90,South,186,0.0,0.0,70,0.00,,SKC,0.00,VWS V14.01,2013-07-13 06:32:00,
2013-07-13 01:36:00,79.3,68.7,29.90,South,186,0.0,0.0,70,0.00,,SKC,0.00,VWS V14.01,2013-07-13 06:36:00,
2013-07-13 01:40:00,79.3,68.7,29.90,South,186,0.0,0.0,70,0.00,,SKC,0.00,VWS V14.01,2013-07-13 06:40:00,
2013-07-13 01:42:00,79.2,69.0,29.89,South,186,0.0,0.0,71,0.00,,SKC,0.00,VWS V14.01,2013-07-13 06:42:00,
2013-07-13 01:46:00,79.1,68.9,29.90,South,186,0.0,0.0,71,0.00,,SKC,0.00,VWS V14.01,2013-07-13 06:46:00,
2013-07-13 01:50:00,79.1,68.9,29.90,South,186,0.0,0.0,71,0.00,,SKC,0.00,VWS V14.01,2013-07-13 06:50:00,
2013-07-13 01:51:00,79.0,69.2,29.89,South,186,0.0,0.0,72,0.00,,SKC,0.00,VWS V14.01,2013-07-13 06:51:00,
2013-07-13 01:56:00,78.9,69.1,29.90,South,186,0.0,0.0,72,0.00,,SKC,0.00,VWS V14.01,2013-07-13 06:56:00,
2013-07-13 02:00:00,78.9,69.1,29.90,South,186,0.0,0.0,72,0.00,,SKC,0.00,VWS V14.01,2013-07-13 07:00:00,
2013-07-13 02:01:00,78.8,69.0,29.90,South,186,0.0,0.0,72,0.00,,SKC,0.00,VWS V14.01,2013-07-13 07:01:00,
2013-07-13 02:06:00,78.7,69.3,29.89,South,186,0.0,0.0,73,0.00,,SKC,0.00,VWS V14.01,2013-07-13 07:06:00,
2013-07-13 02:10:00,78.7,69.3,29.90,South,186,0.0,0.0,73,0.00,,SKC,0.00,VWS V14.01,2013-07-13 07:10:00,
2013-07-13 02:11:00,78.6,69.2,29.89,South,186,0.0,0.0,73,0.00,,SKC,0.00,VWS V14.01,2013-07-13 07:11:00,
2013-07-13 02:16:00,78.5,69.5,29.89,South,186,0.0,0.0,74,0.00,,SKC,0.00,VWS V14.01,2013-07-13 07:16:00,
2013-07-13 02:20:00,78.5,69.1,29.90,South,186,0.0,0.0,73,0.00,,SKC,0.00,VWS V14.01,2013-07-13 07:20:00,
2013-07-13 02:21:00,78.3,69.3,29.89,South,186,0.0,0.0,74,0.00,,SKC,0.00,VWS V14.01,2013-07-13 07:21:00,
2013-07-13 02:26:00,78.2,69.2,29.89,South,186,0.0,0.0,74,0.00,,SKC,0.00,VWS V14.01,2013-07-13 07:26:00,
2013-07-13 02:30:00,78.2,69.2,29.89,South,186,0.0,0.0,74,0.00,,SKC,0.00,VWS V14.01,2013-07-13 07:30:00,
2013-07-13 02:31:00,78.0,69.1,29.90,South,186,0.0,0.0,74,0.00,,SKC,0.00,VWS V14.01,2013-07-13 07:31:00,
2013-07-13 02:36:00,77.9,69.3,29.90,South,186,0.0,0.0,75,0.00,,SKC,0.00,VWS V14.01,2013-07-13 07:36:00,
2013-07-13 02:40:00,77.9,69.3,29.90,South,186,0.0,0.0,75,0.00,,SKC,0.00,VWS V14.01,2013-07-13 07:40:00,
2013-07-13 02:41:00,77.7,69.2,29.90,South,186,0.0,0.0,75,0.00,,SKC,0.00,VWS V14.01,2013-07-13 07:41:00,
2013-07-13 02:46:00,77.5,69.0,29.90,South,186,0.0,0.0,75,0.00,,SKC,0.00,VWS V14.01,2013-07-13 07:46:00,
2013-07-13 02:50:00,77.5,69.0,29.90,South,186,0.0,0.0,75,0.00,,SKC,0.00,VWS V14.01,2013-07-13 07:50:00,
2013-07-13 02:51:00,77.4,69.2,29.90,South,186,0.0,0.0,76,0.00,,SKC,0.00,VWS V14.01,2013-07-13 07:51:00,
2013-07-13 02:56:00,77.2,69.1,29.90,South,186,0.0,0.0,76,0.00,,SKC,0.00,VWS V14.01,2013-07-13 07:56:00,
2013-07-13 03:00:00,77.3,69.2,29.90,South,186,0.0,0.0,76,0.00,,SKC,0.00,VWS V14.01,2013-07-13 08:00:00,
2013-07-13 03:01:00,77.1,69.0,29.90,South,186,0.0,0.0,76,0.00,,SKC,0.00,VWS V14.01,2013-07-13 08:01:00,
2013-07-13 03:06:00,76.9,69.2,29.89,South,186,0.0,0.0,77,0.00,,SKC,0.00,VWS V14.01,2013-07-13 08:06:00,
2013-07-13 03:10:00,77.0,68.9,29.90,South,186,0.0,0.0,76,0.00,,SKC,0.00,VWS V14.01,2013-07-13 08:10:00,
2013-07-13 03:11:00,76.8,69.1,29.90,South,186,0.0,0.0,77,0.00,,SKC,0.00,VWS V14.01,2013-07-13 08:11:00,
2013-07-13 03:16:00,76.7,68.9,29.90,South,186,0.0,0.0,77,0.00,,SKC,0.00,VWS V14.01,2013-07-13 08:16:00,
2013-07-13 03:20:00,76.7,68.9,29.90,South,186,0.0,0.0,77,0.00,,SKC,0.00,VWS V14.01,2013-07-13 08:20:00,
2013-07-13 03:21:00,76.6,69.2,29.90,South,186,0.0,0.0,78,0.00,,SKC,0.00,VWS V14.01,2013-07-13 08:21:00,
2013-07-13 03:26:00,76.5,69.1,29.90,South,186,0.0,0.0,78,0.00,,SKC,0.00,VWS V14.01,2013-07-13 08:26:00,
2013-07-13 03:30:00,76.5,69.1,29.90,South,186,0.0,0.0,78,0.00,,SKC,0.00,VWS V14.01,2013-07-13 08:30:00,
2013-07-13 03:31:00,76.4,69.0,29.89,South,186,0.0,0.0,78,0.00,,SKC,0.00,VWS V14.01,2013-07-13 08:31:00,
2013-07-13 03:36:00,76.2,68.8,29.89,South,186,0.0,0.0,78,0.00,,SKC,0.00,VWS V14.01,2013-07-13 08:36:00,
2013-07-13 03:40:00,76.2,68.8,29.89,South,186,0.0,0.0,78,0.00,,SKC,0.00,VWS V14.01,2013-07-13 08:40:00,
2013-07-13 03:41:00,76.1,69.1,29.89,South,186,0.0,0.0,79,0.00,,SKC,0.00,VWS V14.01,2013-07-13 08:41:00,
2013-07-13 03:46:00,75.9,68.9,29.89,South,186,0.0,0.0,79,0.00,,SKC,0.00,VWS V14.01,2013-07-13 08:46:00,
2013-07-13 03:50:00,76.0,69.0,29.89,South,186,0.0,0.0,79,0.00,,SKC,0.00,VWS V14.01,2013-07-13 08:50:00,
2013-07-13 03:51:00,75.8,68.8,29.89,South,186,0.0,0.0,79,0.00,,SKC,0.00,VWS V14.01,2013-07-13 08:51:00,
2013-07-13 03:56:00,75.7,69.1,29.89,South,186,0.0,0.0,80,0.00,,SKC,0.00,VWS V14.01,2013-07-13 08:56:00,
2013-07-13 04:00:00,75.7,69.1,29.89,South,186,0.0,0.0,80,0.00,,SKC,0.00,VWS V14.01,2013-07-13 09:00:00,
2013-07-13 04:01:00,75.6,69.0,29.89,South,186,0.0,0.0,80,0.00,,SKC,0.00,VWS V14.01,2013-07-13 09:01:00,
2013-07-13 04:06:00,75.4,69.2,29.89,South,186,0.0,0.0,81,0.00,,SKC,0.00,VWS V14.01,2013-07-13 09:06:00,
2013-07-13 04:10:00,75.5,69.3,29.89,South,186,0.0,0.0,81,0.00,,SKC,0.00,VWS V14.01,2013-07-13 09:10:00,
2013-07-13 04:11:00,75.3,69.1,29.88,South,186,0.0,0.0,81,0.00,,SKC,0.00,VWS V14.01,2013-07-13 09:11:00,
2013-07-13 04:16:00,75.1,68.9,29.88,South,186,0.0,0.0,81,0.00,,SKC,0.00,VWS V14.01,2013-07-13 09:16:00,
2013-07-13 04:20:00,75.1,68.9,29.88,South,186,0.0,0.0,81,0.00,,SKC,0.00,VWS V14.01,2013-07-13 09:20:00,
2013-07-13 04:21:00,74.9,68.7,29.88,South,186,0.0,0.0,81,0.00,,SKC,0.00,VWS V14.01,2013-07-13 09:21:00,
2013-07-13 04:26:00,74.7,68.8,29.88,South,186,0.0,0.0,82,0.00,,SKC,0.00,VWS V14.01,2013-07-13 09:26:00,
2013-07-13 04:30:00,74.8,68.9,29.88,South,186,0.0,0.0,82,0.00,,SKC,0.00,VWS V14.01,2013-07-13 09:30:00,
2013-07-13 04:31:00,74.6,68.8,29.88,South,186,0.0,0.0,82,0.00,,SKC,0.00,VWS V14.01,2013-07-13 09:31:00,
2013-07-13 04:36:00,74.4,68.6,29.88,South,186,0.0,0.0,82,0.00,,SKC,0.00,VWS V14.01,2013-07-13 09:36:00,
2013-07-13 04:40:00,74.5,68.7,29.88,South,186,0.0,0.0,82,0.00,,SKC,0.00,VWS V14.01,2013-07-13 09:40:00,
2013-07-13 04:41:00,74.2,68.4,29.88,South,186,0.0,0.0,82,0.00,,SKC,0.00,VWS V14.01,2013-07-13 09:41:00,
2013-07-13 04:46:00,74.0,68.5,29.88,South,186,0.0,0.0,83,0.00,,SKC,0.00,VWS V14.01,2013-07-13 09:46:00,
2013-07-13 04:50:00,74.1,68.6,29.88,South,186,0.0,0.0,83,0.00,,SKC,0.00,VWS V14.01,2013-07-13 09:50:00,
2013-07-13 04:51:00,73.9,68.8,29.89,South,186,0.0,0.0,84,0.00,,SKC,0.00,VWS V14.01,2013-07-13 09:51:00,
2013-07-13 04:56:00,73.8,68.3,29.89,South,186,0.0,0.0,83,0.00,,SKC,0.00,VWS V14.01,2013-07-13 09:56:00,
2013-07-13 05:00:00,73.8,68.7,29.89,South,186,0.0,0.0,84,0.00,,SKC,0.00,VWS V14.01,2013-07-13 10:00:00,
2013-07-13 05:01:00,73.6,68.1,29.89,South,186,0.0,0.0,83,0.00,,SKC,0.00,VWS V14.01,2013-07-13 10:01:00,
2013-07-13 05:06:00,73.4,67.9,29.89,South,186,0.0,0.0,83,0.00,,SKC,0.00,VWS V14.01,2013-07-13 10:06:00,
2013-07-13 05:10:00,73.5,68.0,29.89,South,186,0.0,0.0,83,0.00,,SKC,0.00,VWS V14.01,2013-07-13 10:10:00,
2013-07-13 05:11:00,73.3,68.2,29.90,South,186,0.0,0.0,84,0.00,,SKC,0.00,VWS V14.01,2013-07-13 10:11:00,
2013-07-13 05:16:00,73.1,68.0,29.90,South,186,0.0,0.0,84,0.00,,SKC,0.00,VWS V14.01,2013-07-13 10:16:00,
2013-07-13 05:20:00,73.1,68.0,29.90,South,186,0.0,0.0,84,0.00,,SKC,0.00,VWS V14.01,2013-07-13 10:20:00,
2013-07-13 05:21:00,72.9,67.8,29.90,South,186,0.0,0.0,84,0.00,,SKC,0.00,VWS V14.01,2013-07-13 10:21:00,
2013-07-13 05:26:00,72.7,67.6,29.90,South,186,0.0,0.0,84,0.00,,SKC,0.00,VWS V14.01,2013-07-13 10:26:00,
2013-07-13 05:30:00,72.7,67.6,29.90,South,186,0.0,0.0,84,0.00,,SKC,0.00,VWS V14.01,2013-07-13 10:30:00,
2013-07-13 05:31:00,72.7,68.3,29.90,South,186,0.0,0.0,86,0.00,,SKC,0.00,VWS V14.01,2013-07-13 10:31:00,
2013-07-13 05:36:00,72.6,68.2,29.90,South,186,0.0,0.0,86,0.00,,SKC,0.00,VWS V14.01,2013-07-13 10:36:00,
2013-07-13 05:40:00,72.6,68.2,29.90,South,186,0.0,0.0,86,0.00,,SKC,0.00,VWS V14.01,2013-07-13 10:40:00,
2013-07-13 05:41:00,72.5,68.1,29.90,South,186,0.0,0.0,86,0.00,,SKC,0.00,VWS V14.01,2013-07-13 10:41:00,
2013-07-13 05:46:00,72.5,68.4,29.90,South,186,0.0,0.0,87,0.00,,SKC,0.00,VWS V14.01,2013-07-13 10:46:00,
2013-07-13 05:50:00,72.5,68.4,29.90,South,186,0.0,0.0,87,0.00,,SKC,0.00,VWS V14.01,2013-07-13 10:50:00,
2013-07-13 05:51:00,72.6,68.5,29.90,South,186,0.0,0.0,87,0.00,,SKC,0.00,VWS V14.01,2013-07-13 10:51:00,
2013-07-13 05:56:00,72.6,68.2,29.90,South,186,0.0,0.0,86,0.00,,SKC,0.00,VWS V14.01,2013-07-13 10:56:00,
2013-07-13 06:00:00,72.6,68.5,29.90,South,186,0.0,0.0,87,0.00,,SKC,0.00,VWS V14.01,2013-07-13 11:00:00,
2013-07-13 06:01:00,72.4,68.0,29.90,South,186,0.0,0.0,86,0.00,,SKC,0.00,VWS V14.01,2013-07-13 11:01:00,
2013-07-13 06:06:00,72.4,68.0,29.90,South,186,0.0,0.0,86,0.00,,SKC,0.00,VWS V14.01,2013-07-13 11:06:00,
2013-07-13 06:10:00,72.3,67.9,29.90,South,186,0.0,0.0,86,0.00,,SKC,0.00,VWS V14.01,2013-07-13 11:10:00,
2013-07-13 06:11:00,72.2,67.8,29.90,South,186,0.0,0.0,86,0.00,,SKC,0.00,VWS V14.01,2013-07-13 11:11:00,
2013-07-13 06:16:00,72.1,68.0,29.90,South,186,0.0,0.0,87,0.00,,SKC,0.00,VWS V14.01,2013-07-13 11:16:00,
2013-07-13 06:20:00,72.1,68.0,29.90,South,186,0.0,0.0,87,0.00,,SKC,0.00,VWS V14.01,2013-07-13 11:20:00,
2013-07-13 06:21:00,72.0,67.9,29.90,South,186,0.0,0.0,87,0.00,,SKC,0.00,VWS V14.01,2013-07-13 11:21:00,
2013-07-13 06:26:00,71.8,67.7,29.90,South,186,0.0,0.0,87,0.00,,SKC,0.00,VWS V14.01,2013-07-13 11:26:00,
2013-07-13 06:30:00,71.9,67.8,29.90,South,186,0.0,0.0,87,0.00,,SKC,0.00,VWS V14.01,2013-07-13 11:30:00,
2013-07-13 06:31:00,71.7,67.6,29.90,South,186,0.0,0.0,87,0.00,,SKC,0.00,VWS V14.01,2013-07-13 11:31:00,
2013-07-13 06:36:00,71.6,67.5,29.90,South,186,0.0,0.0,87,0.00,,SKC,0.00,VWS V14.01,2013-07-13 11:36:00,
2013-07-13 06:40:00,71.6,67.5,29.90,South,186,0.0,0.0,87,0.00,,SKC,0.00,VWS V14.01,2013-07-13 11:40:00,
2013-07-13 06:41:00,71.5,67.4,29.90,South,186,0.0,0.0,87,0.00,,SKC,0.00,VWS V14.01,2013-07-13 11:41:00,
2013-07-13 06:46:00,71.3,67.2,29.91,South,186,0.0,0.0,87,0.00,,SKC,0.00,VWS V14.01,2013-07-13 11:46:00,
2013-07-13 06:50:00,71.3,67.2,29.91,South,186,0.0,0.0,87,0.00,,SKC,0.00,VWS V14.01,2013-07-13 11:50:00,
2013-07-13 06:51:00,71.2,67.5,29.91,South,186,0.0,0.0,88,0.00,,SKC,0.00,VWS V14.01,2013-07-13 11:51:00,
2013-07-13 06:56:00,71.2,67.5,29.91,South,186,0.0,0.0,88,0.00,,SKC,0.00,VWS V14.01,2013-07-13 11:56:00,
2013-07-13 07:00:00,71.2,67.5,29.91,South,186,0.0,0.0,88,0.00,,SKC,0.00,VWS V14.01,2013-07-13 12:00:00,
2013-07-13 07:01:00,71.1,67.4,29.90,South,186,0.0,0.0,88,0.00,,SKC,0.00,VWS V14.01,2013-07-13 12:01:00,
2013-07-13 07:06:00,71.1,67.7,29.91,South,186,0.0,0.0,89,0.00,,SKC,0.00,VWS V14.01,2013-07-13 12:06:00,
2013-07-13 07:10:00,71.1,67.7,29.91,South,186,0.0,0.0,89,0.00,,SKC,0.00,VWS V14.01,2013-07-13 12:10:00,
2013-07-13 07:11:00,71.2,67.8,29.91,South,186,0.0,0.0,89,0.00,,SKC,0.00,VWS V14.01,2013-07-13 12:11:00,
2013-07-13 07:16:00,71.5,68.4,29.91,South,186,0.0,0.0,90,0.00,,SKC,0.00,VWS V14.01,2013-07-13 12:16:00,
2013-07-13 07:20:00,71.5,68.4,29.91,South,186,0.0,0.0,90,0.00,,SKC,0.00,VWS V14.01,2013-07-13 12:20:00,
2013-07-13 07:21:00,71.8,68.4,29.91,South,186,0.0,0.0,89,0.00,,SKC,0.00,VWS V14.01,2013-07-13 12:21:00,
2013-07-13 07:26:00,72.1,69.0,29.91,South,186,0.0,0.0,90,0.00,,SKC,0.00,VWS V14.01,2013-07-13 12:26:00,
2013-07-13 07:30:00,72.0,68.9,29.92,South,186,0.0,0.0,90,0.00,,SKC,0.00,VWS V14.01,2013-07-13 12:30:00,
2013-07-13 07:31:00,72.4,69.0,29.92,South,186,0.0,0.0,89,0.00,,SKC,0.00,VWS V14.01,2013-07-13 12:31:00,
2013-07-13 07:36:00,72.9,69.5,29.92,South,186,0.0,0.0,89,0.00,,SKC,0.00,VWS V14.01,2013-07-13 12:36:00,
2013-07-13 07:40:00,72.9,69.5,29.92,South,186,0.0,0.0,89,0.00,,SKC,0.00,VWS V14.01,2013-07-13 12:40:00,
2013-07-13 07:41:00,73.4,69.6,29.92,South,186,0.0,0.0,88,0.00,,SKC,0.00,VWS V14.01,2013-07-13 12:41:00,
2013-07-13 07:46:00,73.9,70.1,29.92,South,186,0.0,0.0,88,0.00,,SKC,0.00,VWS V14.01,2013-07-13 12:46:00,
2013-07-13 07:50:00,73.8,70.0,29.92,South,186,0.0,0.0,88,0.00,,SKC,0.00,VWS V14.01,2013-07-13 12:50:00,
2013-07-13 07:51:00,74.4,70.3,29.92,South,186,0.0,0.0,87,0.00,,SKC,0.00,VWS V14.01,2013-07-13 12:51:00,
2013-07-13 07:56:00,75.1,70.6,29.92,South,187,0.0,0.0,86,0.00,,SKC,0.00,VWS V14.01,2013-07-13 12:56:00,
2013-07-13 08:00:00,75.0,70.5,29.92,South,187,0.0,0.0,86,0.00,,SKC,0.00,VWS V14.01,2013-07-13 13:00:00,
2013-07-13 08:01:00,75.7,70.5,29.92,South,187,0.0,0.0,84,0.00,,SKC,0.00,VWS V14.01,2013-07-13 13:01:00,
2013-07-13 08:06:00,76.3,70.8,29.93,South,187,0.0,0.0,83,0.00,,SKC,0.00,VWS V14.01,2013-07-13 13:06:00,
2013-07-13 08:10:00,76.2,70.7,29.93,South,187,0.0,0.0,83,0.00,,SKC,0.00,VWS V14.01,2013-07-13 13:10:00,
2013-07-13 08:11:00,76.9,71.0,29.93,South,187,0.0,0.0,82,0.00,,SKC,0.00,VWS V14.01,2013-07-13 13:11:00,
2013-07-13 08:16:00,77.5,71.2,29.93,South,187,0.0,0.0,81,0.00,,SKC,0.00,VWS V14.01,2013-07-13 13:16:00,
2013-07-13 08:20:00,77.5,71.2,29.93,South,187,0.0,0.0,81,0.00,,SKC,0.00,VWS V14.01,2013-07-13 13:20:00,
2013-07-13 08:21:00,78.3,71.6,29.93,South,187,0.0,0.0,80,0.00,,SKC,0.00,VWS V14.01,2013-07-13 13:21:00,
2013-07-13 08:26:00,79.0,71.6,29.93,South,187,0.0,0.0,78,0.00,,SKC,0.00,VWS V14.01,2013-07-13 13:26:00,
2013-07-13 08:30:00,78.9,71.5,29.93,South,187,0.0,0.0,78,0.00,,SKC,0.00,VWS V14.01,2013-07-13 13:30:00,
2013-07-13 08:31:00,79.7,71.9,29.92,South,187,0.0,0.0,77,0.00,,SKC,0.00,VWS V14.01,2013-07-13 13:31:00,
2013-07-13 08:36:00,80.3,72.1,29.92,South,187,0.0,0.0,76,0.00,,SKC,0.00,VWS V14.01,2013-07-13 13:36:00,
2013-07-13 08:40:00,80.3,72.1,29.92,South,187,0.0,0.0,76,0.00,,SKC,0.00,VWS V14.01,2013-07-13 13:40:00,
2013-07-13 08:41:00,80.9,72.2,29.92,South,187,0.0,0.0,75,0.00,,SKC,0.00,VWS V14.01,2013-07-13 13:41:00,
2013-07-13 08:46:00,81.4,72.3,29.92,South,187,0.0,0.0,74,0.00,,SKC,0.00,VWS V14.01,2013-07-13 13:46:00,
2013-07-13 08:50:00,81.4,72.3,29.92,South,187,0.0,0.0,74,0.00,,SKC,0.00,VWS V14.01,2013-07-13 13:50:00,
2013-07-13 08:51:00,81.8,72.3,29.92,South,187,0.0,0.0,73,0.00,,SKC,0.00,VWS V14.01,2013-07-13 13:51:00,
2013-07-13 08:56:00,82.3,72.4,29.92,South,187,0.0,1.0,72,0.00,,SKC,0.00,VWS V14.01,2013-07-13 13:56:00,
2013-07-13 09:00:00,82.3,72.4,29.92,South,187,1.0,2.0,72,0.00,,SKC,0.00,VWS V14.01,2013-07-13 14:00:00,
2013-07-13 09:01:00,82.3,72.4,29.93,South,187,0.0,4.0,72,0.00,,SKC,0.00,VWS V14.01,2013-07-13 14:01:00,
2013-07-13 09:06:00,82.4,72.5,29.92,South,187,0.0,0.0,72,0.00,,SKC,0.00,VWS V14.01,2013-07-13 14:06:00,
2013-07-13 09:10:00,82.4,72.5,29.93,South,187,0.0,4.0,72,0.00,,SKC,0.00,VWS V14.01,2013-07-13 14:10:00,
2013-07-13 09:11:00,82.7,72.8,29.93,South,187,0.0,0.0,72,0.00,,SKC,0.00,VWS V14.01,2013-07-13 14:11:00,
2013-07-13 09:16:00,83.1,72.7,29.93,South,187,0.0,0.0,71,0.00,,SKC,0.00,VWS V14.01,2013-07-13 14:16:00,
2013-07-13 09:20:00,83.0,72.6,29.93,South,187,0.0,0.0,71,0.00,,SKC,0.00,VWS V14.01,2013-07-13 14:20:00,
2013-07-13 09:21:00,83.5,72.7,29.93,South,187,0.0,1.0,70,0.00,,SKC,0.00,VWS V14.01,2013-07-13 14:21:00,
2013-07-13 09:26:00,83.9,72.7,29.93,South,187,0.0,0.0,69,0.00,,SKC,0.00,VWS V14.01,2013-07-13 14:26:00,
2013-07-13 09:30:00,83.9,73.1,29.93,South,187,0.0,1.0,70,0.00,,SKC,0.00,VWS V14.01,2013-07-13 14:30:00,
2013-07-13 09:31:00,84.4,72.7,29.93,South,187,0.0,0.0,68,0.00,,SKC,0.00,VWS V14.01,2013-07-13 14:31:00,
2013-07-13 09:36:00,84.7,72.5,29.93,South,187,0.0,0.0,67,0.00,,SKC,0.00,VWS V14.01,2013-07-13 14:36:00,
2013-07-13 09:40:00,84.7,72.5,29.94,South,187,0.0,0.0,67,0.00,,SKC,0.00,VWS V14.01,2013-07-13 14:40:00,
2013-07-13 09:41:00,85.2,73.0,29.94,SSW,195,0.0,0.0,67,0.00,,SKC,0.00,VWS V14.01,2013-07-13 14:41:00,
2013-07-13 09:46:00,85.5,72.8,29.94,SSW,195,0.0,0.0,66,0.00,,SKC,0.00,VWS V14.01,2013-07-13 14:46:00,
2013-07-13 09:50:00,85.5,72.8,29.94,SSW,195,0.0,0.0,66,0.00,,SKC,0.00,VWS V14.01,2013-07-13 14:50:00,
2013-07-13 09:51:00,86.2,72.1,29.94,SSW,195,0.0,0.0,63,0.00,,SKC,0.00,VWS V14.01,2013-07-13 14:51:00,
2013-07-13 09:56:00,86.9,72.8,29.94,SSW,194,0.0,0.0,63,0.00,,SKC,0.00,VWS V14.01,2013-07-13 14:56:00,
2013-07-13 10:00:00,86.8,72.7,29.93,SSW,194,0.0,5.0,63,0.00,,SKC,0.00,VWS V14.01,2013-07-13 15:00:00,
2013-07-13 10:01:00,87.5,72.4,29.94,SSW,194,0.0,0.0,61,0.00,,SKC,0.00,VWS V14.01,2013-07-13 15:01:00,
2013-07-13 10:06:00,88.0,71.9,29.94,SSW,203,0.0,0.0,59,0.00,,SKC,0.00,VWS V14.01,2013-07-13 15:06:00,
2013-07-13 10:10:00,88.0,72.4,29.94,SSW,203,0.0,0.0,60,0.00,,SKC,0.00,VWS V14.01,2013-07-13 15:10:00,
2013-07-13 10:11:00,88.5,71.3,29.93,SSW,203,0.0,0.0,57,0.00,,SKC,0.00,VWS V14.01,2013-07-13 15:11:00,
2013-07-13 10:16:00,89.1,71.4,29.93,SSW,203,0.0,0.0,56,0.00,,SKC,0.00,VWS V14.01,2013-07-13 15:16:00,
2013-07-13 10:20:00,89.0,71.3,29.93,SSW,203,0.0,0.0,56,0.00,,SKC,0.00,VWS V14.01,2013-07-13 15:20:00,
2013-07-13 10:21:00,89.7,71.4,29.93,SSW,203,0.0,0.0,55,0.00,,SKC,0.00,VWS V14.01,2013-07-13 15:21:00,
2013-07-13 10:26:00,90.1,70.7,29.93,SSW,203,0.0,0.0,53,0.00,,SKC,0.00,VWS V14.01,2013-07-13 15:26:00,
2013-07-13 10:30:00,90.1,70.7,29.93,SSW,203,0.0,1.0,53,0.00,,SKC,0.00,VWS V14.01,2013-07-13 15:30:00,
2013-07-13 10:31:00,90.5,68.8,29.93,SSW,203,0.0,0.0,49,0.00,,SKC,0.00,VWS V14.01,2013-07-13 15:31:00,
2013-07-13 10:36:00,91.1,70.5,29.93,SSW,203,0.0,0.0,51,0.00,,SKC,0.00,VWS V14.01,2013-07-13 15:36:00,
2013-07-13 10:40:00,91.0,69.8,29.93,SSW,203,0.0,0.0,50,0.00,,SKC,0.00,VWS V14.01,2013-07-13 15:40:00,
2013-07-13 10:41:00,91.5,69.7,29.93,SSW,203,0.0,1.0,49,0.00,,SKC,0.00,VWS V14.01,2013-07-13 15:41:00,
2013-07-13 10:46:00,91.8,69.3,29.93,SSW,203,0.0,0.0,48,0.00,,SKC,0.00,VWS V14.01,2013-07-13 15:46:00,
2013-07-13 10:50:00,91.8,69.3,29.93,SSW,203,0.0,1.0,48,0.00,,SKC,0.00,VWS V14.01,2013-07-13 15:50:00,
2013-07-13 10:51:00,91.8,70.5,29.93,SSW,203,0.0,0.0,50,0.00,,SKC,0.00,VWS V14.01,2013-07-13 15:51:00,
2013-07-13 10:56:00,91.9,70.0,29.93,SSW,203,0.0,0.0,49,0.00,,SKC,0.00,VWS V14.01,2013-07-13 15:56:00,
2013-07-13 11:00:00,91.9,70.0,29.93,SSW,203,0.0,0.0,49,0.00,,SKC,0.00,VWS V14.01,2013-07-13 16:00:00,
2013-07-13 11:01:00,92.1,70.8,29.93,SSW,203,0.0,5.0,50,0.00,,SKC,0.00,VWS V14.01,2013-07-13 16:01:00,
2013-07-13 11:06:00,92.3,71.6,29.93,SSW,203,0.0,1.0,51,0.00,,SKC,0.00,VWS V14.01,2013-07-13 16:06:00,
2013-07-13 11:10:00,92.3,71.6,29.93,SSW,203,0.0,5.0,51,0.00,,SKC,0.00,VWS V14.01,2013-07-13 16:10:00,
2013-07-13 11:11:00,92.7,70.8,29.93,SSW,202,0.0,1.0,49,0.00,,SKC,0.00,VWS V14.01,2013-07-13 16:11:00,
2013-07-13 11:16:00,93.2,71.2,29.93,SSW,204,0.0,0.0,49,0.00,,SKC,0.00,VWS V14.01,2013-07-13 16:16:00,
2013-07-13 11:20:00,93.2,71.2,29.93,SSW,204,0.0,1.0,49,0.00,,SKC,0.00,VWS V14.01,2013-07-13 16:20:00,
2013-07-13 11:21:00,93.5,71.5,29.93,SSW,204,0.0,5.0,49,0.00,,SKC,0.00,VWS V14.01,2013-07-13 16:21:00,
2013-07-13 11:26:00,93.7,71.1,29.93,SSW,202,0.0,1.0,48,0.00,,SKC,0.00,VWS V14.01,2013-07-13 16:26:00,
2013-07-13 11:30:00,93.7,71.1,29.93,SSW,202,1.0,6.0,48,0.00,,SKC,0.00,VWS V14.01,2013-07-13 16:30:00,
2013-07-13 11:31:00,93.9,71.2,29.93,SSW,202,2.0,3.0,48,0.00,,SKC,0.00,VWS V14.01,2013-07-13 16:31:00,
2013-07-13 11:36:00,93.9,71.8,29.93,SSW,205,0.0,0.0,49,0.00,,SKC,0.00,VWS V14.01,2013-07-13 16:36:00,
2013-07-13 11:40:00,93.9,71.8,29.93,SSW,205,0.0,4.0,49,0.00,,SKC,0.00,VWS V14.01,2013-07-13 16:40:00,
2013-07-13 11:41:00,93.7,70.4,29.93,SSW,203,0.0,5.0,47,0.00,,SKC,0.00,VWS V14.01,2013-07-13 16:41:00,
2013-07-13 11:46:00,93.6,71.0,29.93,SSW,203,0.0,0.0,48,0.00,,SKC,0.00,VWS V14.01,2013-07-13 16:46:00,
2013-07-13 11:50:00,93.6,71.0,29.93,SSW,203,0.0,5.0,48,0.00,,SKC,0.00,VWS V14.01,2013-07-13 16:50:00,
2013-07-13 11:51:00,93.8,70.5,29.92,SSW,203,0.0,3.0,47,0.00,,SKC,0.00,VWS V14.01,2013-07-13 16:51:00,
2013-07-13 11:56:00,94.0,71.3,29.92,SSW,203,0.0,3.0,48,0.00,,SKC,0.00,VWS V14.01,2013-07-13 16:56:00,
2013-07-13 12:00:00,94.0,71.3,29.93,SSW,203,0.0,3.0,48,0.00,,SKC,0.00,VWS V14.01,2013-07-13 17:00:00,
2013-07-13 12:01:00,94.0,70.1,29.92,SSW,203,0.0,6.0,46,0.00,,SKC,0.00,VWS V14.01,2013-07-13 17:01:00,
2013-07-13 12:06:00,94.1,69.5,29.92,SSW,201,0.0,5.0,45,0.00,,SKC,0.00,VWS V14.01,2013-07-13 17:06:00,
2013-07-13 12:10:00,94.1,69.5,29.92,SSW,201,0.0,6.0,45,0.00,,SKC,0.00,VWS V14.01,2013-07-13 17:10:00,
2013-07-13 12:11:00,94.1,69.5,29.92,SSW,200,0.0,7.0,45,0.00,,SKC,0.00,VWS V14.01,2013-07-13 17:11:00,
2013-07-13 12:16:00,94.5,70.5,29.92,SSW,200,0.0,0.0,46,0.00,,SKC,0.00,VWS V14.01,2013-07-13 17:16:00,
2013-07-13 12:20:00,94.4,71.1,29.92,SSW,200,0.0,7.0,47,0.00,,SKC,0.00,VWS V14.01,2013-07-13 17:20:00,
2013-07-13 12:21:00,94.9,70.2,29.92,SSW,200,0.0,5.0,45,0.00,,SKC,0.00,VWS V14.01,2013-07-13 17:21:00,
2013-07-13 12:26:00,94.8,68.8,29.92,SSW,200,0.0,0.0,43,0.00,,SKC,0.00,VWS V14.01,2013-07-13 17:26:00,
2013-07-13 12:30:00,94.8,69.5,29.92,SSW,200,0.0,5.0,44,0.00,,SKC,0.00,VWS V14.01,2013-07-13 17:30:00,
2013-07-13 12:31:00,94.8,70.8,29.91,SSW,200,0.0,3.0,46,0.00,,SKC,0.00,VWS V14.01,2013-07-13 17:31:00,
2013-07-13 12:36:00,95.1,70.4,29.92,SSW,200,0.0,0.0,45,0.00,,SKC,0.00,VWS V14.01,2013-07-13 17:36:00,
2013-07-13 12:40:00,95.0,70.3,29.92,SSW,200,0.0,3.0,45,0.00,,SKC,0.00,VWS V14.01,2013-07-13 17:40:00,
2013-07-13 12:41:00,95.3,70.6,29.91,SSW,199,0.0,6.0,45,0.00,,SKC,0.00,VWS V14.01,2013-07-13 17:41:00,
2013-07-13 12:46:00,95.5,70.1,29.91,SSW,199,0.0,0.0,44,0.00,,SKC,0.00,VWS V14.01,2013-07-13 17:46:00,
2013-07-13 12:50:00,95.5,70.1,29.91,SSW,199,0.0,6.0,44,0.00,,SKC,0.00,VWS V14.01,2013-07-13 17:50:00,
2013-07-13 12:51:00,95.8,69.0,29.91,SSW,199,0.0,5.0,42,0.00,,SKC,0.00,VWS V14.01,2013-07-13 17:51:00,
2013-07-13 12:56:00,95.8,69.0,29.91,SSW,199,0.0,0.0,42,0.00,,SKC,0.00,VWS V14.01,2013-07-13 17:56:00,
2013-07-13 13:00:00,95.8,69.7,29.91,SSW,199,0.0,5.0,43,0.00,,SKC,0.00,VWS V14.01,2013-07-13 18:00:00,
2013-07-13 13:01:00,96.1,70.0,29.90,SSW,199,0.0,1.0,43,0.00,,SKC,0.00,VWS V14.01,2013-07-13 18:01:00,
2013-07-13 13:06:00,96.5,70.4,29.90,SSW,199,0.0,0.0,43,0.00,,SKC,0.00,VWS V14.01,2013-07-13 18:06:00,
2013-07-13 13:10:00,96.5,70.4,29.91,SSW,199,0.0,5.0,43,0.00,,SKC,0.00,VWS V14.01,2013-07-13 18:10:00,
2013-07-13 13:11:00,96.6,69.8,29.90,SSW,199,0.0,4.0,42,0.00,,SKC,0.00,VWS V14.01,2013-07-13 18:11:00,
2013-07-13 13:16:00,96.9,70.0,29.90,SSW,199,0.0,0.0,42,0.00,,SKC,0.00,VWS V14.01,2013-07-13 18:16:00,
2013-07-13 13:20:00,96.9,70.0,29.90,SSW,199,0.0,4.0,42,0.00,,SKC,0.00,VWS V14.01,2013-07-13 18:20:00,
2013-07-13 13:21:00,97.1,69.5,29.90,SSW,199,0.0,4.0,41,0.00,,SKC,0.00,VWS V14.01,2013-07-13 18:21:00,
2013-07-13 13:26:00,97.2,69.6,29.89,SSW,199,0.0,0.0,41,0.00,,SKC,0.00,VWS V14.01,2013-07-13 18:26:00,
2013-07-13 13:30:00,97.2,69.6,29.89,SSW,199,0.0,4.0,41,0.00,,SKC,0.00,VWS V14.01,2013-07-13 18:30:00,
2013-07-13 13:31:00,97.1,70.2,29.89,South,186,0.0,11.0,42,0.00,,SKC,0.00,VWS V14.01,2013-07-13 18:31:00,
2013-07-13 13:36:00,97.1,70.9,29.89,South,185,8.0,8.0,43,0.00,,SKC,0.00,VWS V14.01,2013-07-13 18:36:00,
2013-07-13 13:40:00,97.1,70.9,29.89,South,186,5.0,11.0,43,0.00,,SKC,0.00,VWS V14.01,2013-07-13 18:40:00,
2013-07-13 13:41:00,97.1,68.8,29.89,South,185,0.0,8.0,40,0.00,,SKC,0.00,VWS V14.01,2013-07-13 18:41:00,
2013-07-13 13:46:00,97.3,70.4,29.89,South,185,0.0,0.0,42,0.00,,SKC,0.00,VWS V14.01,2013-07-13 18:46:00,
2013-07-13 13:50:00,97.3,70.4,29.89,South,185,0.0,8.0,42,0.00,,SKC,0.00,VWS V14.01,2013-07-13 18:50:00,
2013-07-13 13:51:00,97.7,69.3,29.89,South,181,0.0,10.0,40,0.00,,SKC,0.00,VWS V14.01,2013-07-13 18:51:00,
2013-07-13 13:56:00,97.6,69.9,29.88,South,181,0.0,0.0,41,0.00,,SKC,0.00,VWS V14.01,2013-07-13 18:56:00,
2013-07-13 14:00:00,97.6,69.2,29.88,South,181,0.0,10.0,40,0.00,,SKC,0.00,VWS V14.01,2013-07-13 19:00:00,
2013-07-13 14:01:00,97.7,68.6,29.88,South,180,0.0,7.0,39,0.00,,SKC,0.00,VWS V14.01,2013-07-13 19:01:00,
2013-07-13 14:06:00,97.6,68.5,29.88,South,180,0.0,0.0,39,0.00,,SKC,0.00,VWS V14.01,2013-07-13 19:06:00,
2013-07-13 14:10:00,97.6,68.5,29.88,South,180,0.0,7.0,39,0.00,,SKC,0.00,VWS V14.01,2013-07-13 19:10:00,
2013-07-13 14:11:00,97.7,70.0,29.87,South,180,0.0,6.0,41,0.00,,SKC,0.00,VWS V14.01,2013-07-13 19:11:00,
2013-07-13 14:16:00,97.8,70.1,29.87,South,180,0.0,3.0,41,0.00,,SKC,0.00,VWS V14.01,2013-07-13 19:16:00,
2013-07-13 14:20:00,97.8,70.1,29.87,South,180,2.0,7.0,41,0.00,,SKC,0.00,VWS V14.01,2013-07-13 19:20:00,
2013-07-13 14:21:00,97.8,69.4,29.87,South,181,0.0,7.0,40,0.00,,SKC,0.00,VWS V14.01,2013-07-13 19:21:00,
2013-07-13 14:26:00,98.1,68.9,29.87,South,181,0.0,0.0,39,0.00,,SKC,0.00,VWS V14.01,2013-07-13 19:26:00,
2013-07-13 14:30:00,98.0,68.8,29.87,South,181,0.0,7.0,39,0.00,,SKC,0.00,VWS V14.01,2013-07-13 19:30:00,
2013-07-13 14:31:00,98.2,68.3,29.86,South,180,3.0,8.0,38,0.00,,SKC,0.00,VWS V14.01,2013-07-13 19:31:00,
2013-07-13 14:36:00,98.1,67.4,29.86,South,180,0.0,0.0,37,0.00,,SKC,0.00,VWS V14.01,2013-07-13 19:36:00,
2013-07-13 14:40:00,98.1,67.4,29.86,South,180,0.0,8.0,37,0.00,,SKC,0.00,VWS V14.01,2013-07-13 19:40:00,
2013-07-13 14:41:00,98.2,69.0,29.86,South,178,4.0,6.0,39,0.00,,SKC,0.00,VWS V14.01,2013-07-13 19:41:00,
2013-07-13 14:46:00,98.7,67.9,29.86,South,178,2.0,2.0,37,0.00,,SKC,0.00,VWS V14.01,2013-07-13 19:46:00,
2013-07-13 14:50:00,98.7,67.9,29.86,South,178,0.0,6.0,37,0.00,,SKC,0.00,VWS V14.01,2013-07-13 19:50:00,
2013-07-13 14:51:00,99.1,65.8,29.86,South,178,0.0,7.0,34,0.00,,SKC,0.00,VWS V14.01,2013-07-13 19:51:00,
2013-07-13 14:56:00,99.4,67.8,29.86,South,178,0.0,1.0,36,0.00,,SKC,0.00,VWS V14.01,2013-07-13 19:56:00,
2013-07-13 15:00:00,99.4,67.8,29.86,South,178,0.0,7.0,36,0.00,,SKC,0.00,VWS V14.01,2013-07-13 20:00:00,
2013-07-13 15:01:00,99.8,68.1,29.85,South,175,1.0,7.0,36,0.00,,SKC,0.00,VWS V14.01,2013-07-13 20:01:00,
2013-07-13 15:06:00,100.0,67.5,29.85,South,175,0.0,0.0,35,0.00,,SKC,0.00,VWS V14.01,2013-07-13 20:06:00,
2013-07-13 15:10:00,100.0,66.6,29.85,South,175,0.0,7.0,34,0.00,,SKC,0.00,VWS V14.01,2013-07-13 20:10:00,
2013-07-13 15:11:00,100.2,67.6,29.85,South,175,0.0,6.0,35,0.00,,SKC,0.00,VWS V14.01,2013-07-13 20:11:00,
2013-07-13 15:16:00,100.3,66.9,29.85,South,175,0.0,0.0,34,0.00,,SKC,0.00,VWS V14.01,2013-07-13 20:16:00,
2013-07-13 15:20:00,100.3,66.9,29.85,South,175,0.0,6.0,34,0.00,,SKC,0.00,VWS V14.01,2013-07-13 20:20:00,
2013-07-13 15:21:00,100.4,67.0,29.85,South,175,2.0,4.0,34,0.00,,SKC,0.00,VWS V14.01,2013-07-13 20:21:00,
2013-07-13 15:26:00,100.5,67.1,29.85,South,178,0.0,0.0,34,0.00,,SKC,0.00,VWS V14.01,2013-07-13 20:26:00,
2013-07-13 15:30:00,100.6,67.1,29.85,South,178,0.0,8.0,34,0.00,,SKC,0.00,VWS V14.01,2013-07-13 20:30:00,
2013-07-13 15:31:00,100.5,65.3,29.85,South,179,0.0,7.0,32,0.00,,SKC,0.00,VWS V14.01,2013-07-13 20:31:00,
2013-07-13 15:36:00,100.5,67.1,29.85,South,179,0.0,0.0,34,0.00,,SKC,0.00,VWS V14.01,2013-07-13 20:36:00,
2013-07-13 15:40:00,100.5,67.9,29.85,South,179,0.0,7.0,35,0.00,,SKC,0.00,VWS V14.01,2013-07-13 20:40:00,
2013-07-13 15:41:00,101.1,64.9,29.85,South,179,0.0,2.0,31,0.00,,SKC,0.00,VWS V14.01,2013-07-13 20:41:00,
2013-07-13 15:46:00,101.5,62.3,29.85,South,179,0.0,1.0,28,0.00,,SKC,0.00,VWS V14.01,2013-07-13 20:46:00,
2013-07-13 15:50:00,101.5,62.3,29.85,South,179,0.0,2.0,28,0.00,,SKC,0.00,VWS V14.01,2013-07-13 20:50:00,
2013-07-13 15:51:00,101.4,64.2,29.85,South,179,0.0,2.0,30,0.00,,SKC,0.00,VWS V14.01,2013-07-13 20:51:00,
2013-07-13 15:56:00,101.3,61.2,29.84,South,179,0.0,1.0,27,0.00,,SKC,0.00,VWS V14.01,2013-07-13 20:56:00,
2013-07-13 16:00:00,101.3,61.2,29.85,South,179,0.0,4.0,27,0.00,,SKC,0.00,VWS V14.01,2013-07-13 21:00:00,
2013-07-13 16:01:00,100.4,60.4,29.84,South,178,0.0,4.0,27,0.00,,SKC,0.00,VWS V14.01,2013-07-13 21:01:00,
2013-07-13 16:06:00,99.9,61.0,29.84,South,178,0.0,0.0,28,0.00,,SKC,0.00,VWS V14.01,2013-07-13 21:06:00,
2013-07-13 16:10:00,99.9,61.0,29.84,South,178,0.0,4.0,28,0.00,,SKC,0.00,VWS V14.01,2013-07-13 21:10:00,
2013-07-13 16:11:00,100.0,62.1,29.84,South,177,0.0,4.0,29,0.00,,SKC,0.00,VWS V14.01,2013-07-13 21:11:00,
2013-07-13 16:16:00,100.5,62.5,29.83,South,170,0.0,0.0,29,0.00,,SKC,0.00,VWS V14.01,2013-07-13 21:16:00,
2013-07-13 16:20:00,100.5,62.5,29.83,South,170,0.0,5.0,29,0.00,,SKC,0.00,VWS V14.01,2013-07-13 21:20:00,
2013-07-13 16:21:00,100.8,60.7,29.83,South,170,0.0,3.0,27,0.00,,SKC,0.00,VWS V14.01,2013-07-13 21:21:00,
2013-07-13 16:26:00,100.5,61.5,29.83,South,170,0.0,3.0,28,0.00,,SKC,0.00,VWS V14.01,2013-07-13 21:26:00,
2013-07-13 16:30:00,100.5,61.5,29.83,South,170,3.0,5.0,28,0.00,,SKC,0.00,VWS V14.01,2013-07-13 21:30:00,
2013-07-13 16:31:00,100.1,62.2,29.83,SSE,167,0.0,8.0,29,0.00,,SKC,0.00,VWS V14.01,2013-07-13 21:31:00,
2013-07-13 16:36:00,100.0,61.1,29.83,SSE,167,1.0,1.0,28,0.00,,SKC,0.00,VWS V14.01,2013-07-13 21:36:00,
2013-07-13 16:40:00,100.0,61.1,29.83,SSE,167,1.0,8.0,28,0.00,,SKC,0.00,VWS V14.01,2013-07-13 21:40:00,
2013-07-13 16:41:00,100.2,62.2,29.83,SSE,167,0.0,2.0,29,0.00,,SKC,0.00,VWS V14.01,2013-07-13 21:41:00,
2013-07-13 16:46:00,100.6,61.6,29.83,SSE,166,0.0,5.0,28,0.00,,SKC,0.00,VWS V14.01,2013-07-13 21:46:00,
2013-07-13 16:50:00,100.6,61.6,29.83,SSE,166,0.0,5.0,28,0.00,,SKC,0.00,VWS V14.01,2013-07-13 21:50:00,
2013-07-13 16:51:00,100.9,62.8,29.83,SSE,165,0.0,6.0,29,0.00,,SKC,0.00,VWS V14.01,2013-07-13 21:51:00,
2013-07-13 16:56:00,101.2,61.1,29.83,SSE,165,0.0,6.0,27,0.00,,SKC,0.00,VWS V14.01,2013-07-13 21:56:00,
2013-07-13 17:00:00,101.2,61.1,29.83,SSE,165,0.0,6.0,27,0.00,,SKC,0.00,VWS V14.01,2013-07-13 22:00:00,
2013-07-13 17:01:00,101.7,63.5,29.82,SSE,165,0.0,0.0,29,0.00,,SKC,0.00,VWS V14.01,2013-07-13 22:01:00,
2013-07-13 17:06:00,102.0,60.7,29.82,SSE,165,0.0,3.0,26,0.00,,SKC,0.00,VWS V14.01,2013-07-13 22:06:00,
2013-07-13 17:10:00,102.0,60.7,29.82,SSE,164,0.0,3.0,26,0.00,,SKC,0.00,VWS V14.01,2013-07-13 22:10:00,
2013-07-13 17:11:00,101.4,60.2,29.82,SSE,156,0.0,6.0,26,0.00,,SKC,0.00,VWS V14.01,2013-07-13 22:11:00,
2013-07-13 17:16:00,100.7,60.6,29.82,SSE,156,0.0,6.0,27,0.00,,SKC,0.00,VWS V14.01,2013-07-13 22:16:00,
2013-07-13 17:20:00,100.7,59.6,29.82,SSE,156,0.0,6.0,26,0.00,,SKC,0.00,VWS V14.01,2013-07-13 22:20:00,
2013-07-13 17:21:00,100.5,60.5,29.82,SSE,156,2.0,2.0,27,0.00,,SKC,0.00,VWS V14.01,2013-07-13 22:21:00,
2013-07-13 17:26:00,100.4,60.4,29.82,SSE,153,0.0,5.0,27,0.00,,SKC,0.00,VWS V14.01,2013-07-13 22:26:00,
2013-07-13 17:30:00,100.4,60.4,29.82,SSE,153,0.0,5.0,27,0.00,,SKC,0.00,VWS V14.01,2013-07-13 22:30:00,
2013-07-13 17:31:00,100.4,59.3,29.81,SSE,153,0.0,4.0,26,0.00,,SKC,0.00,VWS V14.01,2013-07-13 22:31:00,
2013-07-13 17:36:00,100.5,61.5,29.81,SSE,147,2.0,4.0,28,0.00,,SKC,0.00,VWS V14.01,2013-07-13 22:36:00,
2013-07-13 17:40:00,100.5,61.5,29.81,SSE,147,0.0,4.0,28,0.00,,SKC,0.00,VWS V14.01,2013-07-13 22:40:00,
2013-07-13 17:41:00,100.6,59.5,29.81,SSE,147,0.0,3.0,26,0.00,,SKC,0.00,VWS V14.01,2013-07-13 22:41:00,
2013-07-13 17:46:00,100.6,61.6,29.81,SSE,147,0.0,3.0,28,0.00,,SKC,0.00,VWS V14.01,2013-07-13 22:46:00,
2013-07-13 17:50:00,100.6,61.6,29.81,SSE,147,0.0,3.0,28,0.00,,SKC,0.00,VWS V14.01,2013-07-13 22:50:00,
2013-07-13 17:51:00,100.7,61.7,29.81,SSE,147,0.0,1.0,28,0.00,,SKC,0.00,VWS V14.01,2013-07-13 22:51:00,
2013-07-13 17:56:00,100.8,59.7,29.81,SSE,147,0.0,4.0,26,0.00,,SKC,0.00,VWS V14.01,2013-07-13 22:56:00,
2013-07-13 18:00:00,100.8,59.7,29.81,SSE,147,0.0,4.0,26,0.00,,SKC,0.00,VWS V14.01,2013-07-13 23:00:00,
2013-07-13 18:01:00,100.8,59.7,29.80,SSE,147,0.0,2.0,26,0.00,,SKC,0.00,VWS V14.01,2013-07-13 23:01:00,
2013-07-13 18:06:00,100.7,61.7,29.80,SSE,147,0.0,2.0,28,0.00,,SKC,0.00,VWS V14.01,2013-07-13 23:06:00,
2013-07-13 18:10:00,100.7,61.7,29.80,SSE,147,0.0,2.0,28,0.00,,SKC,0.00,VWS V14.01,2013-07-13 23:10:00,
2013-07-13 18:11:00,100.6,59.5,29.80,SSE,147,0.0,1.0,26,0.00,,SKC,0.00,VWS V14.01,2013-07-13 23:11:00,
2013-07-13 18:16:00,100.6,59.5,29.80,SSE,147,0.0,5.0,26,0.00,,SKC,0.00,VWS V14.01,2013-07-13 23:16:00,
2013-07-13 18:20:00,100.6,59.5,29.80,SSE,147,0.0,5.0,26,0.00,,SKC,0.00,VWS V14.01,2013-07-13 23:20:00,
2013-07-13 18:21:00,100.6,58.4,29.80,SSE,147,0.0,3.0,25,0.00,,SKC,0.00,VWS V14.01,2013-07-13 23:21:00,
2013-07-13 18:26:00,100.5,59.4,29.80,SSE,147,0.0,0.0,26,0.00,,SKC,0.00,VWS V14.01,2013-07-13 23:26:00,
2013-07-13 18:30:00,100.5,59.4,29.80,SSE,147,0.0,4.0,26,0.00,,SKC,0.00,VWS V14.01,2013-07-13 23:30:00,
2013-07-13 18:31:00,100.3,59.2,29.80,SSE,147,0.0,4.0,26,0.00,,SKC,0.00,VWS V14.01,2013-07-13 23:31:00,
2013-07-13 18:36:00,100.2,59.2,29.79,SSE,147,0.0,1.0,26,0.00,,SKC,0.00,VWS V14.01,2013-07-13 23:36:00,
2013-07-13 18:40:00,100.2,59.2,29.80,SSE,147,0.0,4.0,26,0.00,,SKC,0.00,VWS V14.01,2013-07-13 23:40:00,
2013-07-13 18:41:00,100.1,60.1,29.79,SSE,147,0.0,1.0,27,0.00,,SKC,0.00,VWS V14.01,2013-07-13 23:41:00,
2013-07-13 18:46:00,99.9,60.0,29.79,SSE,147,0.0,0.0,27,0.00,,SKC,0.00,VWS V14.01,2013-07-13 23:46:00,
2013-07-13 18:50:00,99.9,60.0,29.79,SSE,147,0.0,1.0,27,0.00,,SKC,0.00,VWS V14.01,2013-07-13 23:50:00,
2013-07-13 18:51:00,99.7,60.8,29.79,SSE,147,0.0,0.0,28,0.00,,SKC,0.00,VWS V14.01,2013-07-13 23:51:00,
2013-07-13 18:56:00,99.5,59.6,29.79,SSE,147,0.0,0.0,27,0.00,,SKC,0.00,VWS V14.01,2013-07-13 23:56:00,
2013-07-13 19:00:00,99.6,59.7,29.79,SSE,147,0.0,3.0,27,0.00,,SKC,0.00,VWS V14.01,2013-07-14 00:00:00,
2013-07-13 19:01:00,99.4,59.5,29.79,SSE,147,0.0,2.0,27,0.00,,SKC,0.00,VWS V14.01,2013-07-14 00:01:00,
2013-07-13 19:06:00,99.2,59.4,29.79,SSE,147,0.0,0.0,27,0.00,,SKC,0.00,VWS V14.01,2013-07-14 00:06:00,
2013-07-13 19:10:00,99.2,59.4,29.79,SSE,147,0.0,2.0,27,0.00,,SKC,0.00,VWS V14.01,2013-07-14 00:10:00,
2013-07-13 19:11:00,99.1,60.3,29.80,SSE,147,0.0,2.0,28,0.00,,SKC,0.00,VWS V14.01,2013-07-14 00:11:00,
2013-07-13 19:16:00,98.8,61.0,29.79,SSE,147,0.0,0.0,29,0.00,,SKC,0.00,VWS V14.01,2013-07-14 00:16:00,
2013-07-13 19:20:00,98.9,61.1,29.80,SSE,147,0.0,2.0,29,0.00,,SKC,0.00,VWS V14.01,2013-07-14 00:20:00,
2013-07-13 19:21:00,98.6,60.9,29.79,SSE,147,0.0,4.0,29,0.00,,SKC,0.00,VWS V14.01,2013-07-14 00:21:00,
2013-07-13 19:26:00,98.4,60.7,29.79,SSE,147,0.0,0.0,29,0.00,,SKC,0.00,VWS V14.01,2013-07-14 00:26:00,
2013-07-13 19:30:00,98.4,60.7,29.79,SSE,147,0.0,4.0,29,0.00,,SKC,0.00,VWS V14.01,2013-07-14 00:30:00,
2013-07-13 19:31:00,98.1,60.4,29.79,SSE,147,0.0,6.0,29,0.00,,SKC,0.00,VWS V14.01,2013-07-14 00:31:00,
2013-07-13 19:36:00,97.8,61.1,29.79,SSE,147,0.0,0.0,30,0.00,,SKC,0.00,VWS V14.01,2013-07-14 00:36:00,
2013-07-13 19:40:00,97.9,61.2,29.79,SSE,147,0.0,6.0,30,0.00,,SKC,0.00,VWS V14.01,2013-07-14 00:40:00,
2013-07-13 19:41:00,97.6,61.0,29.79,SSE,147,0.0,1.0,30,0.00,,SKC,0.00,VWS V14.01,2013-07-14 00:41:00,
2013-07-13 19:46:00,97.4,59.8,29.79,SSE,147,0.0,0.0,29,0.00,,SKC,0.00,VWS V14.01,2013-07-14 00:46:00,
2013-07-13 19:50:00,97.4,59.8,29.79,SSE,147,0.0,1.0,29,0.00,,SKC,0.00,VWS V14.01,2013-07-14 00:50:00,
2013-07-13 19:51:00,97.2,60.6,29.79,SSE,147,0.0,1.0,30,0.00,,SKC,0.00,VWS V14.01,2013-07-14 00:51:00,
2013-07-13 19:56:00,97.0,60.5,29.79,SSE,147,0.0,0.0,30,0.00,,SKC,0.00,VWS V14.01,2013-07-14 00:56:00,
2013-07-13 20:00:00,97.0,60.5,29.79,SSE,147,0.0,1.0,30,0.00,,SKC,0.00,VWS V14.01,2013-07-14 01:00:00,
2013-07-13 20:01:00,96.8,60.3,29.79,SSE,147,0.0,2.0,30,0.00,,SKC,0.00,VWS V14.01,2013-07-14 01:01:00,
2013-07-13 20:06:00,96.5,60.0,29.79,SSE,147,0.0,0.0,30,0.00,,SKC,0.00,VWS V14.01,2013-07-14 01:06:00,
2013-07-13 20:10:00,96.5,60.0,29.79,SSE,147,0.0,2.0,30,0.00,,SKC,0.00,VWS V14.01,2013-07-14 01:10:00,
2013-07-13 20:11:00,96.1,59.7,29.79,SSE,147,0.0,0.0,30,0.00,,SKC,0.00,VWS V14.01,2013-07-14 01:11:00,
2013-07-13 20:16:00,95.8,60.3,29.79,SSE,147,0.0,0.0,31,0.00,,SKC,0.00,VWS V14.01,2013-07-14 01:16:00,
2013-07-13 20:20:00,95.8,60.3,29.79,SSE,147,0.0,1.0,31,0.00,,SKC,0.00,VWS V14.01,2013-07-14 01:20:00,
2013-07-13 20:21:00,95.5,60.1,29.79,SSE,149,0.0,0.0,31,0.00,,SKC,0.00,VWS V14.01,2013-07-14 01:21:00,
2013-07-13 20:26:00,95.1,60.6,29.79,SSE,149,0.0,0.0,32,0.00,,SKC,0.00,VWS V14.01,2013-07-14 01:26:00,
2013-07-13 20:30:00,95.1,60.6,29.79,SSE,148,0.0,0.0,32,0.00,,SKC,0.00,VWS V14.01,2013-07-14 01:30:00,
2013-07-13 20:31:00,94.6,60.2,29.79,SSE,148,0.0,0.0,32,0.00,,SKC,0.00,VWS V14.01,2013-07-14 01:31:00,
2013-07-13 20:36:00,94.2,60.7,29.79,SSE,148,0.0,0.0,33,0.00,,SKC,0.00,VWS V14.01,2013-07-14 01:36:00,
2013-07-13 20:40:00,94.2,60.7,29.79,SSE,148,0.0,0.0,33,0.00,,SKC,0.00,VWS V14.01,2013-07-14 01:40:00,
2013-07-13 20:41:00,93.8,60.4,29.79,SSE,149,0.0,0.0,33,0.00,,SKC,0.00,VWS V14.01,2013-07-14 01:41:00,
2013-07-13 20:46:00,93.4,60.9,29.79,SSE,149,0.0,0.0,34,0.00,,SKC,0.00,VWS V14.01,2013-07-14 01:46:00,
2013-07-13 20:50:00,93.4,60.9,29.79,SSE,148,0.0,0.0,34,0.00,,SKC,0.00,VWS V14.01,2013-07-14 01:50:00,
2013-07-13 20:51:00,93.0,61.3,29.79,SSE,148,0.0,0.0,35,0.00,,SKC,0.00,VWS V14.01,2013-07-14 01:51:00,
2013-07-13 20:56:00,92.6,61.0,29.79,SSE,148,0.0,0.0,35,0.00,,SKC,0.00,VWS V14.01,2013-07-14 01:56:00,
2013-07-13 21:00:00,92.6,61.0,29.79,SSE,149,0.0,0.0,35,0.00,,SKC,0.00,VWS V14.01,2013-07-14 02:00:00,
2013-07-13 21:01:00,92.2,61.4,29.80,SSE,148,0.0,0.0,36,0.00,,SKC,0.00,VWS V14.01,2013-07-14 02:01:00,
2013-07-13 21:06:00,91.9,61.2,29.80,SSE,149,0.0,0.0,36,0.00,,SKC,0.00,VWS V14.01,2013-07-14 02:06:00,
2013-07-13 21:10:00,91.9,61.2,29.80,SSE,149,0.0,0.0,36,0.00,,SKC,0.00,VWS V14.01,2013-07-14 02:10:00,
2013-07-13 21:11:00,91.5,60.8,29.79,SSE,149,0.0,0.0,36,0.00,,SKC,0.00,VWS V14.01,2013-07-14 02:11:00,
2013-07-13 21:16:00,91.1,60.5,29.80,SSE,149,0.0,0.0,36,0.00,,SKC,0.00,VWS V14.01,2013-07-14 02:16:00,
2013-07-13 21:20:00,91.1,60.5,29.79,SSE,149,0.0,0.0,36,0.00,,SKC,0.00,VWS V14.01,2013-07-14 02:20:00,
2013-07-13 21:21:00,90.8,61.0,29.80,SSE,148,0.0,0.0,37,0.00,,SKC,0.00,VWS V14.01,2013-07-14 02:21:00,
2013-07-13 21:26:00,90.5,60.7,29.80,SSE,149,0.0,0.0,37,0.00,,SKC,0.00,VWS V14.01,2013-07-14 02:26:00,
2013-07-13 21:30:00,90.5,60.7,29.80,SSE,149,0.0,0.0,37,0.00,,SKC,0.00,VWS V14.01,2013-07-14 02:30:00,
2013-07-13 21:31:00,90.2,61.2,29.80,SSE,148,0.0,0.0,38,0.00,,SKC,0.00,VWS V14.01,2013-07-14 02:31:00,
2013-07-13 21:36:00,89.9,60.9,29.80,SSE,148,0.0,0.0,38,0.00,,SKC,0.00,VWS V14.01,2013-07-14 02:36:00,
2013-07-13 21:40:00,89.9,60.9,29.80,SSE,148,0.0,0.0,38,0.00,,SKC,0.00,VWS V14.01,2013-07-14 02:40:00,
2013-07-13 21:41:00,89.6,60.7,29.80,SSE,148,0.0,0.0,38,0.00,,SKC,0.00,VWS V14.01,2013-07-14 02:41:00,
2013-07-13 21:46:00,89.3,61.1,29.81,SSE,148,0.0,0.0,39,0.00,,SKC,0.00,VWS V14.01,2013-07-14 02:46:00,
2013-07-13 21:50:00,89.3,61.1,29.81,SSE,149,0.0,0.0,39,0.00,,SKC,0.00,VWS V14.01,2013-07-14 02:50:00,
2013-07-13 21:51:00,89.0,61.6,29.81,SSE,149,0.0,0.0,40,0.00,,SKC,0.00,VWS V14.01,2013-07-14 02:51:00,
2013-07-13 21:56:00,88.8,61.4,29.81,SSE,148,0.0,0.0,40,0.00,,SKC,0.00,VWS V14.01,2013-07-14 02:56:00,
2013-07-13 22:00:00,88.8,61.4,29.81,SSE,149,0.0,0.0,40,0.00,,SKC,0.00,VWS V14.01,2013-07-14 03:00:00,
2013-07-13 22:01:00,88.5,61.1,29.81,SSE,148,0.0,0.0,40,0.00,,SKC,0.00,VWS V14.01,2013-07-14 03:01:00,
2013-07-13 22:06:00,88.2,60.8,29.82,SSE,148,0.0,0.0,40,0.00,,SKC,0.00,VWS V14.01,2013-07-14 03:06:00,
2013-07-13 22:10:00,88.3,60.9,29.82,SSE,149,0.0,3.0,40,0.00,,SKC,0.00,VWS V14.01,2013-07-14 03:10:00,
2013-07-13 22:11:00,88.1,61.5,29.82,SSE,149,2.0,5.0,41,0.00,,SKC,0.00,VWS V14.01,2013-07-14 03:11:00,
2013-07-13 22:16:00,87.9,62.0,29.82,SSE,149,0.0,0.0,42,0.00,,SKC,0.00,VWS V14.01,2013-07-14 03:16:00,
2013-07-13 22:20:00,87.9,62.0,29.82,SSE,148,0.0,5.0,42,0.00,,SKC,0.00,VWS V14.01,2013-07-14 03:20:00,
2013-07-13 22:21:00,87.7,62.5,29.82,SSE,148,0.0,1.0,43,0.00,,SKC,0.00,VWS V14.01,2013-07-14 03:21:00,
2013-07-13 22:26:00,87.4,62.8,29.82,SSE,148,0.0,0.0,44,0.00,,SKC,0.00,VWS V14.01,2013-07-14 03:26:00,
2013-07-13 22:30:00,87.4,62.8,29.82,SSE,149,0.0,2.0,44,0.00,,SKC,0.00,VWS V14.01,2013-07-14 03:30:00,
2013-07-13 22:31:00,87.1,62.6,29.82,SSE,148,0.0,3.0,44,0.00,,SKC,0.00,VWS V14.01,2013-07-14 03:31:00,
2013-07-13 22:36:00,86.8,62.9,29.83,SSE,149,0.0,3.0,45,0.00,,SKC,0.00,VWS V14.01,2013-07-14 03:36:00,
2013-07-13 22:40:00,86.8,62.9,29.83,SSE,149,0.0,3.0,45,0.00,,SKC,0.00,VWS V14.01,2013-07-14 03:40:00,
2013-07-13 22:41:00,86.5,63.3,29.83,SSE,149,0.0,0.0,46,0.00,,SKC,0.00,VWS V14.01,2013-07-14 03:41:00,
2013-07-13 22:46:00,86.2,63.0,29.82,SSE,149,0.0,0.0,46,0.00,,SKC,0.00,VWS V14.01,2013-07-14 03:46:00,
2013-07-13 22:50:00,86.2,63.0,29.82,SSE,148,0.0,1.0,46,0.00,,SKC,0.00,VWS V14.01,2013-07-14 03:50:00,
2013-07-13 22:51:00,85.9,63.3,29.82,SSE,149,0.0,0.0,47,0.00,,SKC,0.00,VWS V14.01,2013-07-14 03:51:00,
2013-07-13 22:56:00,85.6,63.7,29.83,SSE,148,0.0,2.0,48,0.00,,SKC,0.00,VWS V14.01,2013-07-14 03:56:00,
2013-07-13 23:00:00,85.6,63.7,29.83,SSE,148,0.0,2.0,48,0.00,,SKC,0.00,VWS V14.01,2013-07-14 04:00:00,
2013-07-13 23:01:00,85.3,63.4,29.83,SSE,148,0.0,1.0,48,0.00,,SKC,0.00,VWS V14.01,2013-07-14 04:01:00,
2013-07-13 23:06:00,85.0,63.7,29.83,SSE,149,0.0,2.0,49,0.00,,SKC,0.00,VWS V14.01,2013-07-14 04:06:00,
2013-07-13 23:10:00,85.0,63.7,29.83,SSE,149,0.0,1.0,49,0.00,,SKC,0.00,VWS V14.01,2013-07-14 04:10:00,
2013-07-13 23:11:00,84.8,63.5,29.83,SSE,149,0.0,3.0,49,0.00,,SKC,0.00,VWS V14.01,2013-07-14 04:11:00,
2013-07-13 23:16:00,84.7,64.0,29.83,SSE,149,0.0,0.0,50,0.00,,SKC,0.00,VWS V14.01,2013-07-14 04:16:00,
2013-07-13 23:20:00,84.7,64.0,29.83,SSE,148,0.0,3.0,50,0.00,,SKC,0.00,VWS V14.01,2013-07-14 04:20:00,
2013-07-13 23:21:00,84.5,63.8,29.83,SSE,148,0.0,0.0,50,0.00,,SKC,0.00,VWS V14.01,2013-07-14 04:21:00,
2013-07-13 23:26:00,84.3,64.2,29.83,SSE,149,0.0,0.0,51,0.00,,SKC,0.00,VWS V14.01,2013-07-14 04:26:00,
2013-07-13 23:30:00,84.3,64.2,29.83,SSE,148,0.0,0.0,51,0.00,,SKC,0.00,VWS V14.01,2013-07-14 04:30:00,
2013-07-13 23:31:00,84.1,64.0,29.83,SSE,149,0.0,3.0,51,0.00,,SKC,0.00,VWS V14.01,2013-07-14 04:31:00,
2013-07-13 23:36:00,84.0,64.5,29.84,SSE,149,0.0,0.0,52,0.00,,SKC,0.00,VWS V14.01,2013-07-14 04:36:00,
2013-07-13 23:40:00,84.0,64.5,29.84,SSE,149,0.0,3.0,52,0.00,,SKC,0.00,VWS V14.01,2013-07-14 04:40:00,
2013-07-13 23:41:00,83.9,64.4,29.84,SSE,149,0.0,1.0,52,0.00,,SKC,0.00,VWS V14.01,2013-07-14 04:41:00,
2013-07-13 23:46:00,83.8,64.9,29.84,SSE,148,0.0,0.0,53,0.00,,SKC,0.00,VWS V14.01,2013-07-14 04:46:00,
2013-07-13 23:50:00,83.8,64.9,29.84,SSE,148,0.0,1.0,53,0.00,,SKC,0.00,VWS V14.01,2013-07-14 04:50:00,
2013-07-13 23:51:00,83.6,64.7,29.84,SSE,148,0.0,0.0,53,0.00,,SKC,0.00,VWS V14.01,2013-07-14 04:51:00,
2013-07-13 23:56:00,83.5,65.1,29.84,SSE,148,0.0,0.0,54,0.00,,SKC,0.00,VWS V14.01,2013-07-14 04:56:00,